Retour au catalogue

FENGYUN 1C DEB

LostSSO
NORAD 39113·DEBRIS·🇨🇳 China

Lancé May 10, 1999 depuis Taiyuan Satellite Launch Center

Loading…

Prochains Passages (prochaines 24 heures)

TLE

PériméSource: Space-Track

Époque: Sep 29, 2022, 13:22 UTC

1 39113U 99025EWA 22272.55697716  .00001216  00000-0  72462-3 0  9997
2 39113  99.0205  17.4720 0045180  80.7189 279.9086 14.08712568495760

Suivez FENGYUN 1C DEB en temps réel avec AllMySat

Download on the App Store